Date,TemperatureHighF,TemperatureAvgF,TemperatureLowF,DewpointHighF,DewpointAvgF,DewpointLowF,HumidityHigh,HumidityAvg,HumidityLow,PressureMaxIn,PressureMinIn,WindSpeedMaxMPH,WindSpeedAvgMPH,GustSpeedMaxMPH,PrecipitationSumIn
2014-1-1,46,43,39,44,42,39,99,95,89,30.39,30.24,4,0,4,0.00
2014-1-2,48,43,39,43,40,38,98,90,82,30.24,30.00,7,1,7,0.08
2014-1-3,44,39,35,42,38,34,98,95,90,30.36,30.06,5,0,5,0.05
2014-1-4,38,35,33,36,34,32,98,94,89,30.44,30.36,3,0,3,0.00
2014-1-5,36,34,31,33,32,30,96,93,89,30.47,30.27,6,0,6,0.00
2014-1-6,40,35,30,36,32,29,98,92,80,30.27,30.15,4,0,4,0.04
2014-1-7,44,41,38,44,40,34,99,95,83,30.18,30.00,11,0,11,0.58
2014-1-8,50,46,43,50,46,42,100,98,95,30.03,29.76,9,1,9,0.84
2014-1-9,47,43,40,46,42,39,98,97,92,30.06,29.82,11,2,11,0.25
2014-1-10,50,47,45,48,46,44,99,96,91,30.18,29.68,13,2,13,0.25
2014-1-11,52,47,42,49,45,40,96,92,86,29.97,29.50,17,3,17,1.75
2014-1-12,48,46,42,48,45,40,100,98,90,30.44,29.97,6,1,6,1.46
2014-1-13,50,48,45,49,47,45,100,98,95,30.68,30.44,4,0,4,0.17
2014-1-14,47,45,43,46,44,43,100,99,97,30.68,30.56,4,0,4,0.00
2014-1-15,46,42,37,43,41,36,99,96,90,30.59,30.44,6,0,6,2.56
2014-1-16,43,39,37,40,38,37,100,98,92,30.47,30.33,4,0,4,0.00
2014-1-17,39,37,33,38,36,32,98,96,91,30.33,30.18,4,0,4,0.00
2014-1-18,41,36,31,39,35,31,100,97,90,30.30,30.15,6,0,6,0.00
2014-1-19,43,37,33,40,36,33,99,96,84,30.27,30.15,4,0,4,0.00
2014-1-20,41,38,33,39,36,32,97,94,89,30.33,30.24,3,0,3,0.00
2014-1-21,45,36,32,38,33,30,95,89,72,30.36,30.24,8,0,10,0.00
2014-1-22,47,41,38,43,38,34,93,89,80,30.42,30.33,5,0,5,0.00
2014-1-23,46,42,34,41,39,33,95,89,82,30.44,30.33,6,1,6,0.00
2014-1-24,41,35,32,38,34,30,98,93,86,30.41,30.27,3,0,3,0.00
2014-1-25,42,35,30,36,31,27,91,86,78,30.41,30.24,1,0,1,5.29
2014-1-26,42,35,30,38,32,28,96,88,75,30.24,30.06,7,0,7,0.76
2014-1-27,40,36,32,34,30,27,86,81,77,30.24,30.12,4,0,4,0.00
2014-1-28,48,41,37,41,37,34,96,86,76,30.24,29.91,5,0,5,1.00
2014-1-29,51,45,40,50,44,39,99,95,86,29.91,29.65,7,2,8,0.59
2014-1-30,47,42,40,43,40,38,98,93,80,29.97,29.91,6,1,6,0.34
2014-1-31,47,42,39,44,40,38,98,95,88,30.15,29.94,6,1,6,0.34
2014-2-1,46,41,35,42,39,34,99,94,83,30.18,30.03,7,1,7,0.34
2014-2-2,41,37,34,39,35,33,98,92,83,30.03,29.91,5,0,6,0.09
2014-2-3,42,35,29,34,31,21,98,86,65,30.18,30.00,4,0,4,0.00
2014-2-4,38,32,27,30,23,10,80,69,47,30.36,30.18,13,1,13,0.00
2014-2-5,30,26,21,10,6,1,47,44,40,30.41,30.24,22,7,22,0.00
2014-2-6,25,22,21,17,9,1,78,59,40,30.24,29.74,20,5,20,0.00
2014-2-7,30,25,18,26,18,11,87,76,69,29.91,29.65,6,1,6,0.00
2014-2-8,34,30,27,29,26,22,91,85,77,29.97,29.74,6,0,6,0.00
2014-2-9,40,34,30,34,30,27,94,88,80,30.06,29.94,6,0,6,0.25
2014-2-10,42,37,33,39,35,30,98,91,84,30.15,30.06,9,1,9,0.41
2014-2-11,46,42,37,46,42,37,100,99,97,30.15,29.62,18,1,18,0.46
2014-2-12,52,48,46,49,47,45,99,95,87,29.91,29.59,14,1,14,0.17
2014-2-13,53,47,42,48,43,39,96,85,68,30.15,29.74,10,1,10,0.16
2014-2-14,53,46,39,48,44,38,97,92,77,29.97,29.65,7,1,7,0.42
2014-2-15,50,43,39,50,42,38,99,97,90,29.94,29.26,12,1,12,1.00
2014-2-16,47,42,36,42,39,35,97,90,79,30.03,29.74,18,3,18,0.41
2014-2-17,49,43,39,47,41,37,98,93,87,29.97,29.74,9,1,9,1.91
2014-2-18,48,44,36,48,43,36,99,97,90,29.97,29.65,14,2,14,1.96
2014-2-19,48,40,36,42,38,35,98,94,77,30.21,29.94,9,1,9,0.68
2014-2-20,45,43,40,44,42,39,100,96,94,30.27,30.12,12,1,12,0.96
2014-2-21,49,42,34,44,38,31,100,89,72,30.33,30.24,6,0,6,0.00
2014-2-22,46,40,32,38,35,30,96,84,71,30.24,30.06,5,0,5,0.00
2014-2-23,48,43,35,42,38,34,94,84,72,30.06,29.91,9,1,9,0.00
2014-2-24,50,47,44,47,44,41,95,90,82,30.03,29.97,9,1,9,0.12
2014-2-25,54,45,40,45,40,32,98,85,60,30.06,29.94,8,0,8,0.00
2014-2-26,55,47,38,39,34,31,82,61,50,29.94,29.65,7,1,7,0.00
2014-2-27,47,43,38,41,36,31,89,78,69,29.74,29.59,10,1,10,0.00
2014-2-28,59,48,42,48,41,33,93,77,48,29.71,29.38,12,1,12,0.00
2014-3-1,49,42,37,38,34,31,84,72,58,29.71,29.47,14,2,15,0.00
2014-3-2,48,41,37,46,37,32,96,87,79,29.79,29.56,11,1,11,0.17
2014-3-3,57,50,44,54,47,42,98,90,73,29.94,29.65,10,1,10,0.37
2014-3-4,58,51,44,50,47,42,95,86,74,30.00,29.79,10,1,10,0.37
2014-3-5,57,53,51,56,52,48,98,96,90,29.79,29.41,12,1,12,1.54
2014-3-6,53,49,46,51,48,44,97,94,87,30.12,29.53,15,2,15,1.91
2014-3-7,57,49,42,51,45,40,98,87,67,30.30,30.09,13,1,13,0.00
2014-3-8,52,46,40,52,44,38,99,94,88,30.12,29.76,17,2,17,1.41
2014-3-9,57,53,50,54,52,49,100,96,89,30.03,29.88,4,0,5,0.67
2014-3-10,54,49,42,49,45,38,98,86,72,30.47,29.97,7,1,7,0.42
2014-3-11,54,43,37,45,39,35,95,85,70,30.59,30.41,4,0,4,0.00
2014-3-12,59,49,39,44,39,36,89,70,53,30.41,30.12,4,0,5,0.00
2014-3-13,57,45,37,45,39,34,91,80,55,30.18,30.03,4,0,4,0.04
2014-3-14,58,51,46,54,46,42,96,83,67,30.36,29.97,8,1,8,0.25
2014-3-15,62,51,42,49,43,39,91,76,54,30.33,30.24,18,1,18,0.00
2014-3-16,53,49,41,49,46,38,93,89,80,30.27,30.00,6,0,6,1.16
2014-3-17,50,44,40,41,36,32,94,75,56,30.36,30.06,8,2,8,0.33
2014-3-18,53,46,41,43,40,36,89,80,67,30.36,30.18,11,2,11,0.33
2014-3-19,52,46,39,46,41,34,91,84,70,30.27,30.09,10,1,10,0.08
2014-3-20,50,41,34,40,35,31,93,80,65,30.39,30.27,5,0,5,0.05
2014-3-21,52,42,34,39,33,26,89,71,50,30.36,30.24,5,1,5,0.00
2014-3-22,58,44,33,36,31,25,79,60,39,30.33,30.18,5,1,5,0.05
2014-3-23,57,47,38,41,35,28,77,65,48,30.33,30.21,5,1,5,0.05
2014-3-24,67,52,38,45,37,32,80,60,36,30.21,29.85,15,1,15,0.00
2014-3-25,55,50,45,49,42,36,86,74,53,29.85,29.56,22,2,22,0.16
2014-3-26,50,46,44,47,44,41,95,91,86,29.65,29.50,10,1,10,0.62
2014-3-27,56,48,43,51,44,42,97,88,67,29.88,29.53,12,1,12,0.09
2014-3-28,55,49,46,52,47,43,96,94,87,29.88,29.68,15,3,15,0.45
2014-3-29,53,48,44,50,46,42,98,93,84,29.88,29.71,13,2,13,0.66
2014-3-30,52,45,39,46,42,38,97,89,73,30.00,29.88,11,1,11,0.38
2014-3-31,60,46,37,46,40,36,97,81,48,29.94,29.62,13,1,13,0.04
2014-4-1,52,48,46,48,45,42,94,88,79,29.94,29.71,5,0,5,0.51
2014-4-2,57,49,44,45,42,41,90,79,56,30.03,29.94,10,1,10,0.00
2014-4-3,55,48,42,44,42,40,91,80,58,30.00,29.88,15,2,15,0.00
2014-4-4,53,48,42,47,44,39,91,84,69,29.97,29.91,10,1,10,0.33
2014-4-5,56,50,45,52,47,43,95,90,83,30.15,29.97,12,1,12,0.43
2014-4-6,59,52,48,54,50,46,97,91,84,30.33,30.15,8,0,8,0.09
2014-4-7,70,56,49,56,50,46,97,81,48,30.30,30.06,12,1,12,0.00
2014-4-8,66,54,47,54,48,44,90,80,63,30.21,30.09,6,1,6,0.08
2014-4-9,60,50,42,47,43,38,92,77,55,30.27,30.15,8,1,8,0.00
2014-4-10,62,50,38,45,40,35,88,69,51,30.27,30.09,6,1,6,0.00
2014-4-11,64,50,40,49,42,36,88,73,55,30.18,30.00,8,1,8,0.00
2014-4-12,62,52,45,45,40,35,78,65,43,30.12,30.00,4,1,4,0.00
2014-4-13,68,55,42,44,38,30,74,54,35,30.27,30.09,5,1,5,0.00
2014-4-14,66,53,40,44,37,30,72,55,40,30.21,30.06,8,1,8,0.00
2014-4-15,62,53,47,44,40,37,75,62,47,30.24,30.12,4,1,4,0.00
2014-4-16,55,51,48,48,45,40,90,80,72,30.12,29.97,10,2,10,0.09
2014-4-17,54,51,44,52,49,41,96,92,89,30.00,29.76,10,1,10,2.17
2014-4-18,58,51,41,47,41,38,95,70,49,30.15,29.85,6,1,6,0.09
2014-4-19,54,48,41,50,43,36,91,83,74,30.24,29.76,10,1,10,0.76
2014-4-20,62,52,41,48,43,39,95,72,49,30.27,30.12,11,2,11,0.08
2014-4-21,64,52,45,47,44,40,88,73,50,30.12,29.85,8,1,8,0.46
2014-4-22,54,48,42,48,44,40,92,85,68,29.94,29.85,8,1,8,0.67
2014-4-23,53,48,44,51,46,42,98,94,89,29.91,29.65,12,2,12,1.38
2014-4-24,59,53,47,51,47,39,98,81,50,29.88,29.62,13,2,13,0.50
2014-4-25,55,49,41,45,41,37,90,75,59,29.88,29.82,4,1,4,0.00
2014-4-26,56,49,41,44,40,36,90,71,52,29.85,29.65,13,2,13,0.37
2014-4-27,53,46,41,47,42,39,94,87,73,30.15,29.68,6,1,6,0.42
2014-4-28,60,55,42,45,40,37,94,59,42,30.36,30.15,10,2,10,0.08
2014-4-29,74,65,48,48,43,36,77,46,33,30.47,30.27,8,2,8,0.00
2014-4-30,81,64,48,50,42,36,70,46,25,30.33,30.00,13,1,13,0.00
2014-5-1,85,70,53,51,44,-22,62,42,2,30.03,29.88,6,1,7,0.00
2014-5-2,69,60,52,54,48,41,78,66,52,30.06,29.91,5,1,6,0.00
2014-5-3,61,55,49,50,47,43,89,75,63,29.97,29.71,12,2,12,0.38
2014-5-4,61,54,49,54,49,46,93,85,70,29.88,29.71,10,2,12,0.42
2014-5-5,62,55,47,50,47,44,91,75,60,30.06,29.88,5,1,5,0.00
2014-5-6,63,56,47,51,43,35,81,62,40,30.06,29.97,6,1,6,0.00
2014-5-7,63,53,42,45,41,36,83,65,47,30.06,29.88,8,1,8,0.00
2014-5-8,58,51,48,55,46,40,94,85,70,29.88,29.65,10,1,10,0.67
2014-5-9,58,51,45,52,47,42,95,88,77,30.00,29.79,6,0,6,0.68
2014-5-10,62,52,45,51,45,41,94,77,60,30.27,30.00,6,1,6,0.00
2014-5-11,66,56,44,50,46,40,90,69,49,30.33,30.18,5,1,5,0.00
2014-5-12,76,63,48,53,45,38,87,56,26,30.33,30.12,10,1,10,0.00
2014-5-13,80,66,51,48,43,38,67,45,32,30.30,30.15,6,1,6,0.00
2014-5-14,85,72,58,55,48,39,55,42,33,30.24,30.00,6,1,6,0.00
2014-5-15,83,70,56,59,51,46,71,51,41,30.06,29.91,6,1,6,0.00
2014-5-16,69,59,50,51,47,43,80,66,49,30.12,30.03,6,1,6,0.00
2014-5-17,66,59,54,52,48,45,79,68,56,30.06,29.82,5,1,5,0.00
2014-5-18,62,56,52,55,50,45,90,81,71,29.88,29.82,8,1,8,0.62
2014-5-19,69,62,52,53,50,47,92,67,50,30.03,29.88,7,1,7,0.00
2014-5-20,70,60,50,56,50,44,88,69,54,30.12,30.03,10,1,10,0.00
2014-5-21,69,59,51,54,48,44,77,67,56,30.18,30.06,5,1,5,0.00
2014-5-22,79,68,52,60,55,47,82,64,50,30.12,29.97,4,1,4,0.00
2014-5-23,67,61,56,60,55,50,87,82,72,30.15,29.97,6,1,6,0.51
2014-5-24,68,59,54,54,51,47,88,74,55,30.18,30.09,4,1,5,0.00
2014-5-25,66,57,50,56,51,46,93,81,65,30.12,29.97,6,0,6,0.58
2014-5-26,66,58,51,54,51,43,95,78,54,30.15,29.97,4,1,4,0.00
2014-5-27,68,58,47,52,46,0,100,67,47,30.15,30.09,8,1,8,0.00
2014-5-28,65,56,49,52,47,43,85,73,55,30.21,30.09,6,1,6,0.08
2014-5-29,66,57,51,53,48,44,87,73,51,30.24,30.09,4,0,4,0.09
2014-5-30,72,64,49,53,49,43,83,59,45,30.12,29.88,5,1,5,0.00
2014-5-31,71,61,50,56,50,45,85,67,53,30.09,29.97,6,1,6,0.00
2014-6-1,71,61,53,55,50,45,76,66,54,30.12,29.91,5,1,5,0.00
2014-6-2,70,60,53,58,51,45,83,74,62,29.97,29.85,5,1,5,0.00
2014-6-3,68,60,53,54,48,44,76,65,56,30.12,29.91,7,1,7,0.00
2014-6-4,68,58,51,54,47,42,77,67,50,30.15,30.06,6,1,6,0.00
2014-6-5,72,60,47,52,47,42,85,62,45,30.15,30.00,6,1,6,0.00
2014-6-6,75,65,50,54,48,42,77,55,42,30.09,30.00,6,1,6,0.00
2014-6-7,73,62,54,57,51,45,80,69,54,30.18,30.09,10,1,10,0.00
2014-6-8,74,64,56,59,53,49,81,70,57,30.21,30.06,7,1,7,0.00
2014-6-9,72,63,53,54,50,44,81,62,45,30.15,30.03,7,1,7,0.00
2014-6-10,72,62,48,52,47,42,81,61,46,30.12,30.03,6,1,6,0.00
2014-6-11,76,60,52,55,50,47,83,71,40,30.06,29.79,5,0,5,0.00
2014-6-12,65,58,53,54,51,49,89,77,62,29.88,29.79,7,1,7,1.16
2014-6-13,64,58,52,55,51,47,94,80,62,30.15,29.88,8,1,8,0.17
2014-6-14,68,59,52,53,49,46,82,70,55,30.15,29.97,6,1,6,0.17
2014-6-15,65,59,51,55,49,42,86,69,53,29.97,29.82,6,1,6,0.09
2014-6-16,64,55,50,50,46,42,85,72,56,30.00,29.88,7,1,7,0.08
2014-6-17,63,55,49,53,48,43,87,77,64,30.15,30.00,6,1,6,0.08
2014-6-18,72,60,51,54,48,44,85,67,48,30.15,29.97,4,0,4,0.00
2014-6-19,76,61,51,56,51,46,86,70,46,30.03,29.91,7,1,7,0.00
2014-6-20,70,62,52,54,48,43,83,61,44,30.15,30.03,7,1,7,0.00
2014-6-21,73,62,48,51,46,42,81,59,39,30.12,29.94,6,1,6,0.00
2014-6-22,78,66,52,54,49,45,79,58,37,30.09,29.91,4,1,4,0.00
2014-6-23,76,64,55,56,51,46,80,62,44,30.06,29.94,5,1,5,0.00
2014-6-24,74,65,58,61,56,52,84,73,60,30.09,30.00,6,1,6,0.00
2014-6-25,79,68,60,62,57,55,85,71,45,30.00,29.74,7,0,7,0.75
2014-6-26,65,61,58,60,57,55,91,86,81,29.82,29.76,4,0,4,0.34
2014-6-27,70,64,58,62,57,52,95,80,65,29.88,29.71,13,1,13,0.63
2014-6-28,70,62,58,64,56,52,87,81,67,30.06,29.88,8,1,8,0.33
2014-6-29,71,62,57,59,55,51,90,79,60,30.18,30.06,4,0,4,0.00
2014-6-30,79,66,54,60,54,50,89,69,47,30.21,29.91,5,1,5,0.00
2014-7-1,90,74,60,63,56,50,72,53,37,29.91,29.65,6,1,6,0.00
2014-7-2,77,67,60,58,54,50,77,63,45,30.00,29.76,5,1,5,0.00
2014-7-3,72,64,58,57,52,48,75,66,54,30.09,30.00,6,1,6,0.00
2014-7-4,77,68,55,56,53,48,80,59,46,30.03,29.94,4,1,4,0.00
2014-7-5,81,68,58,61,55,50,78,63,44,30.09,30.00,3,1,3,0.00
2014-7-6,82,71,58,63,58,52,82,64,49,30.15,30.03,4,1,4,0.00
2014-7-7,83,72,62,68,62,56,87,72,58,30.09,29.94,6,1,6,0.00
2014-7-8,84,71,59,65,59,51,87,68,52,30.03,29.88,6,1,6,0.00
2014-7-9,76,66,57,60,54,50,80,67,55,30.00,29.88,5,1,5,0.00
2014-7-10,81,67,55,62,56,49,82,68,49,29.94,29.79,4,1,4,0.00
2014-7-11,84,70,58,65,57,52,84,66,47,30.00,29.88,4,1,4,0.00
2014-7-12,83,69,59,66,59,53,85,71,54,30.09,29.97,5,1,5,0.00
2014-7-13,70,64,60,61,57,54,83,77,71,30.12,30.00,8,1,8,0.00
2014-7-14,77,65,59,64,58,54,89,78,64,30.15,30.03,4,1,4,0.00
2014-7-15,83,68,59,68,59,54,86,74,56,30.09,29.91,4,1,4,0.00
2014-7-16,78,66,56,64,56,51,84,71,56,30.00,29.88,7,1,7,0.00
2014-7-17,76,66,58,58,53,48,80,65,48,30.03,29.94,6,1,6,0.00
2014-7-18,74,62,55,57,52,48,79,70,53,30.09,30.00,4,1,4,0.00
2014-7-19,80,71,60,66,60,54,83,70,61,30.09,29.94,5,1,5,0.00
2014-7-20,71,65,58,57,53,49,79,66,53,29.97,29.91,5,1,5,0.00
2014-7-21,75,66,52,56,51,47,84,61,43,30.03,29.88,4,1,4,0.00
2014-7-22,74,67,60,60,56,51,81,69,56,30.03,29.94,6,1,6,0.00
2014-7-23,66,62,58,60,56,52,91,82,70,30.09,29.97,6,0,6,0.79
2014-7-24,70,61,54,61,55,51,93,82,68,30.24,30.06,6,1,6,0.09
2014-7-25,73,62,53,60,54,50,92,76,59,30.18,30.00,5,1,5,0.09
2014-7-26,79,67,54,62,55,50,88,68,52,30.12,30.03,4,1,4,0.00
2014-7-27,84,71,56,61,56,52,86,61,34,30.12,29.94,6,1,6,0.00
2014-7-28,86,72,58,62,56,51,81,59,41,30.09,29.97,4,1,4,0.00
2014-7-29,84,70,57,63,56,50,81,62,46,30.12,29.97,8,1,8,0.00
2014-7-30,84,71,60,65,58,50,83,64,49,30.12,29.97,5,1,5,0.00
2014-7-31,87,73,57,61,54,48,72,52,36,30.03,29.88,4,1,4,0.00
2014-8-1,86,72,62,64,55,48,72,57,42,30.00,29.85,4,1,4,0.00
2014-8-2,81,69,59,62,56,51,78,64,52,29.97,29.88,3,1,3,0.00
2014-8-3,86,79,67,66,62,56,67,57,47,29.97,29.82,4,1,4,0.00
2014-8-4,85,70,59,64,57,51,79,63,45,29.97,29.82,9,1,9,0.00
2014-8-5,76,66,59,62,56,51,78,69,58,30.09,29.97,4,1,4,0.00
2014-8-6,80,69,60,64,57,51,81,67,51,30.12,30.00,6,1,6,0.00
2014-8-7,75,64,56,59,53,49,83,68,47,30.09,29.97,7,1,7,0.00
2014-8-8,75,65,55,58,53,49,84,66,51,30.12,30.00,7,1,7,0.00
2014-8-9,74,62,54,59,52,49,84,70,52,30.12,30.00,3,1,3,0.00
2014-8-10,88,73,57,59,54,49,83,55,33,30.03,29.85,6,1,6,0.00
2014-8-11,94,79,65,67,58,52,69,50,33,29.91,29.71,5,1,5,0.00
2014-8-12,73,67,62,64,58,52,91,76,57,29.91,29.79,4,1,4,0.34
2014-8-13,70,64,60,65,60,58,93,87,77,30.00,29.88,3,0,3,0.25
2014-8-14,77,67,60,63,60,57,93,79,58,30.00,29.91,5,1,5,0.25
2014-8-15,75,68,63,66,62,59,88,81,71,30.03,29.94,5,0,5,0.08
2014-8-16,80,71,61,65,62,58,92,73,58,30.09,29.97,4,1,4,0.00
2014-8-17,82,70,61,67,61,53,90,74,56,30.09,29.94,5,1,5,0.00
2014-8-18,85,72,57,67,60,53,86,68,52,29.97,29.76,4,1,4,0.00
2014-8-19,75,67,60,63,58,53,83,73,63,29.85,29.76,6,1,6,0.00
2014-8-20,72,63,58,56,52,49,82,69,50,29.97,29.85,6,1,6,0.00
2014-8-21,75,65,55,56,51,45,82,62,38,30.03,29.88,5,1,5,0.00
2014-8-22,78,65,57,59,54,51,82,68,49,30.03,29.94,6,1,6,0.00
2014-8-23,82,68,56,61,55,50,86,66,38,30.12,29.91,7,1,7,0.00
2014-8-24,75,66,56,60,55,50,81,69,59,29.94,29.85,6,1,6,0.00
2014-8-25,84,70,57,61,56,52,87,64,35,29.97,29.85,5,1,5,0.00
2014-8-26,86,72,59,62,56,52,83,60,38,30.00,29.88,4,1,4,0.00
2014-8-27,80,68,61,64,58,53,83,71,55,30.03,29.94,5,1,5,0.00
2014-8-28,77,66,59,62,58,53,84,74,57,30.12,29.97,4,1,4,0.00
2014-8-29,75,68,62,62,58,54,86,72,57,30.00,29.88,4,1,4,0.00
2014-8-30,70,64,60,64,57,52,90,76,59,29.97,29.85,6,1,6,0.26
2014-8-31,73,64,56,59,54,50,87,72,52,30.03,29.97,6,1,6,0.26
2014-9-1,75,64,54,59,55,49,88,72,53,30.06,29.94,5,1,5,0.00
2014-9-2,73,64,57,58,54,51,86,73,51,29.94,29.85,6,1,6,0.00
2014-9-3,71,61,52,53,50,46,82,68,50,30.06,29.94,5,1,5,0.00
2014-9-4,76,65,52,55,51,46,87,63,43,30.09,29.91,6,1,6,0.00
2014-9-5,83,66,56,53,49,45,77,56,34,30.06,29.88,6,1,6,0.00
2014-9-6,87,71,58,55,50,45,68,49,31,29.91,29.71,6,1,6,0.00
2014-9-7,75,63,56,59,53,48,82,72,53,29.88,29.76,4,1,4,0.00
2014-9-8,72,63,58,59,55,52,80,74,59,29.94,29.85,6,1,6,0.00
2014-9-9,72,62,56,56,52,49,84,70,53,30.12,29.94,4,1,4,0.00
2014-9-10,71,61,57,56,51,37,81,70,44,30.18,30.03,6,1,6,0.00
2014-9-11,73,63,51,42,35,30,55,36,25,30.18,29.97,17,2,17,0.00
2014-9-12,78,59,50,44,34,29,47,39,29,29.97,29.76,4,1,4,0.00
2014-9-13,81,66,52,48,39,33,57,38,28,29.85,29.68,4,1,4,0.00
2014-9-14,82,67,52,48,42,35,57,41,29,29.82,29.68,4,0,4,0.00
2014-9-15,86,68,52,53,47,40,69,49,32,29.82,29.65,5,0,5,0.00